Location: Castro Valley
(37.6940°N, 122.0850°W)
Time: 12:36:46
(UTC-08:00)

Amateur Radio Satellites - All Passes

Search period start: 20 January 2018 12:06
Search period end: 21 January 2018 12:06
Location: Castro Valley, 37.6940°N, 122.0850°W

Satellite Date Start Highest point End Downlink Frequencies (MHz)
Time Altitude Azimuth
POLYITAN 1 20 Jan 12:09:59 12:13:34 27° 264° (W) 12:17:11 437.675
NANOSAT C BR1 20 Jan 12:26:41 12:29:47 20° 266° (W) 12:32:55 145.865
AO-7 20 Jan 12:30:38 12:34:01 13° 48° (NE) 12:37:25 .
JUGNU 20 Jan 12:33:48 12:36:16 13° 182° (S) 12:38:44 437.505
LO-87 20 Jan 12:34:23 12:36:07 13° 293° (WNW) 12:37:50 145.935 - 145.965
BUGSAT 1 20 Jan 12:37:20 12:41:22 83° 256° (WSW) 12:45:31 437.445
YUBILEINY 20 Jan 12:41:18 12:45:04 14° 284° (WNW) 12:48:51 435.215
QB50P2 20 Jan 12:42:34 12:43:33 11° 269° (W) 12:44:32 145.880/145.840
Gurwin Techsat 1B 20 Jan 12:45:21 12:50:28 52° 72° (ENE) 12:55:37 435.225
AO-85 20 Jan 13:00:15 13:03:29 23° 311° (NW) 13:06:55 145.980
Oscar 19 20 Jan 13:03:13 13:08:25 80° 257° (WSW) 13:13:39 437.125/150
SO-50 20 Jan 13:06:53 13:09:36 15° 44° (NE) 13:12:20 436.795
VELOX 1 20 Jan 13:18:45 13:23:07 65° 285° (WNW) 13:27:27 145.980
SPROUT 20 Jan 13:19:51 13:23:40 32° 289° (WNW) 13:27:28 437.525
UKube-1 20 Jan 13:26:55 13:29:24 15° 93° (E) 13:31:52 .
AO-91 20 Jan 13:34:38 13:37:21 22° 264° (W) 13:40:06 145.960
DX 1 20 Jan 13:36:34 13:40:31 33° 98° (E) 13:44:27 434.975-435.025
ITAMSAT 1 20 Jan 14:09:55 14:13:51 22° 65° (ENE) 14:17:47 435.822/435.867
50 SAT 20 Jan 14:15:14 14:18:21 71° 284° (WNW) 14:21:26 437.505
AO-7 20 Jan 14:16:56 14:25:07 63° 67° (ENE) 14:33:21 .
RS-15 20 Jan 14:19:34 14:27:37 20° 18° (NNE) 14:35:23 29.354- 29.394
Gurwin Techsat 1B 20 Jan 14:27:11 14:30:40 18° 267° (W) 14:34:12 435.225
ITUPSAT 1 20 Jan 14:35:02 14:37:28 14° 92° (E) 14:39:54 437.325
SRMSAT 20 Jan 14:41:21 14:44:05 13° 177° (S) 14:46:48 437.500
M-CUBED/EXP-1 PRIME 20 Jan 14:44:55 14:46:57 13° 62° (ENE) 14:48:55 437.505
SO-50 20 Jan 14:45:51 14:50:34 75° 241° (WSW) 14:55:20 436.795
UKube-1 20 Jan 15:01:30 15:05:34 41° 288° (WNW) 15:09:37 .
MOZHAYETS 4 20 Jan 15:07:58 15:12:34 60° 100° (E) 15:17:06
CUBESAT XI-V 20 Jan 15:11:30 15:14:08 15° 92° (E) 15:16:45 437.345
DX 1 20 Jan 15:13:19 15:16:27 20° 293° (WNW) 15:19:33 434.975-435.025
BEESAT 20 Jan 15:13:21 15:17:46 36° 98° (E) 15:22:10 436.000
ITAMSAT 1 20 Jan 15:48:09 15:53:00 41° 261° (W) 15:57:53 435.822/435.867
DOVE 4 20 Jan 16:00:34 16:04:50 63° 76° (ENE) 16:08:59 437.250
ITUPSAT 1 20 Jan 16:10:53 16:15:36 56° 287° (WNW) 16:20:17 437.325
AO-7 20 Jan 16:11:35 16:18:17 27° 264° (W) 16:25:04 .
M-CUBED/EXP-1 PRIME 20 Jan 16:16:35 16:20:56 56° 254° (WSW) 16:25:01 437.505
XW-2D 20 Jan 16:17:21 16:18:29 11° 66° (ENE) 16:19:37 145.860 - 145.880
SRMSAT 20 Jan 16:30:17 16:32:22 12° 188° (S) 16:34:28 437.500
RS-15 20 Jan 16:32:31 16:43:54 51° 49° (NE) 16:54:38 29.354- 29.394
XW-2B 20 Jan 16:33:26 16:35:57 17° 69° (ENE) 16:38:26 145.730 - 145.750
HO-68 20 Jan 16:36:59 16:41:20 17° 57° (ENE) 16:45:39 435.675
KKS-1 20 Jan 16:40:19 16:43:25 18° 94° (E) 16:46:31 437.445
MOZHAYETS 4 20 Jan 16:47:04 16:49:09 13° 296° (WNW) 16:51:14
CUBESAT XI-V 20 Jan 16:47:18 16:51:43 47° 287° (WNW) 16:56:06 437.345
BEESAT 20 Jan 16:51:39 16:55:16 22° 293° (WNW) 16:58:54 436.000
NO-84 20 Jan 16:58:12 17:01:22 78° 317° (NW) 17:04:19 435.350 FM
STARS 20 Jan 16:59:18 16:59:57 10° 91° (E) 17:00:36 437.465
LilacSat-2 20 Jan 16:59:53 17:03:30 40° 73° (ENE) 17:07:07 437.200
XW-2C 20 Jan 17:02:30 17:06:05 39° 74° (ENE) 17:09:40 145.795 - 145.815
CUTE-I 20 Jan 17:18:44 17:23:54 54° 72° (ENE) 17:29:05 437.470
SEEDS 20 Jan 17:20:47 17:21:18 10° 64° (ENE) 17:21:48 437.485
CUTE 1.7 + AOD 2 20 Jan 17:29:40 17:33:02 23° 69° (ENE) 17:36:24 437.475
PCSat 20 Jan 17:31:29 17:33:44 12° 43° (NE) 17:35:59 145.827
KAITUO 1B 20 Jan 17:37:38 17:41:23 79° 77° (ENE) 17:45:10 145.475/437.950
XW-2F 20 Jan 17:38:53 17:42:40 73° 257° (WSW) 17:46:29 145.980 - 146.000
CUBEBUG 2 20 Jan 17:39:20 17:42:28 19° 67° (ENE) 17:45:39 437.445
BEESAT 3 20 Jan 17:43:00 17:45:44 18° 48° (NE) 17:48:26 437.485
UWE-3 20 Jan 17:46:27 17:48:30 13° 64° (ENE) 17:50:33 435.000/436.395/437.385
XW-2D 20 Jan 17:48:29 17:52:11 47° 261° (W) 17:55:54 145.860 - 145.880
NUDT-PHONESAT 20 Jan 17:49:07 17:52:50 78° 258° (WSW) 17:56:35 437.300
XW-2B 20 Jan 18:06:28 18:09:51 29° 263° (W) 18:13:14 145.730 - 145.750
ZACube-1 20 Jan 18:10:52 18:12:43 12° 64° (ENE) 18:14:35 437.345
XW-2A 20 Jan 18:15:42 18:16:57 12° 67° (ENE) 18:18:13 145.665 - 145.685
KKS-1 20 Jan 18:15:58 18:20:03 36° 289° (WNW) 18:24:07 437.445
AO-73 20 Jan 18:17:36 18:19:37 13° 64° (ENE) 18:21:38 145.935
HO-68 20 Jan 18:20:56 18:28:06 87° 254° (WSW) 18:35:19 435.675
BEESAT 2 20 Jan 18:30:31 18:33:03 16° 47° (NE) 18:35:33 435.950
STARS 20 Jan 18:32:16 18:36:38 63° 286° (WNW) 18:41:00 437.465
AAUSAT CUBESAT 2 20 Jan 18:35:04 18:38:41 30° 71° (ENE) 18:42:19 437.432
LilacSat-2 20 Jan 18:36:17 18:37:55 12° 268° (W) 18:39:33 437.200
XW-2C 20 Jan 18:38:45 18:40:24 12° 268° (W) 18:42:02 145.795 - 145.815
RS-15 20 Jan 18:45:26 18:56:07 46° 252° (WSW) 19:06:20 29.354- 29.394
Oscar 11 20 Jan 18:50:07 18:53:01 18° 67° (ENE) 18:55:56 .
SEEDS 20 Jan 18:52:12 18:56:24 64° 260° (W) 19:00:35 437.485
CUTE-I 20 Jan 19:00:54 19:04:14 17° 267° (W) 19:07:35 437.470
CUTE 1.7 + AOD 2 20 Jan 19:05:05 19:08:42 27° 264° (W) 19:12:20 437.475
PCSat 20 Jan 19:12:35 19:18:02 78° 62° (ENE) 19:23:26 145.827
CUBEBUG 2 20 Jan 19:14:48 19:18:45 35° 263° (W) 19:22:53 437.445
BEESAT 3 20 Jan 19:19:46 19:23:23 36° 245° (WSW) 19:26:55 437.485
UWE-3 20 Jan 19:20:04 19:24:22 56° 260° (W) 19:28:50 435.000/436.395/437.385
nSIGHT-1 20 Jan 19:22:00 19:24:15 18° 131° (SE) 19:26:32 .
ISS 20 Jan 19:34:38 19:36:48 17° 130° (SE) 19:38:59 437.550
STRAND 1 20 Jan 19:39:14 19:44:24 80° 103° (ESE) 19:49:32 437.568
ZACube-1 20 Jan 19:44:02 19:48:24 60° 260° (W) 19:52:53 437.345
XW-2A 20 Jan 19:46:09 19:49:17 33° 262° (W) 19:52:26 145.665 - 145.685
AO-73 20 Jan 19:50:55 19:55:16 57° 261° (W) 19:59:44 145.935
AO-85 20 Jan 19:51:36 19:55:26 22° 48° (NE) 19:59:25 145.980
BEESAT 2 20 Jan 20:07:10 20:11:00 46° 244° (WSW) 20:14:45 435.950
AAUSAT CUBESAT 2 20 Jan 20:11:11 20:14:08 19° 266° (W) 20:17:06 437.432
HO-68 20 Jan 20:13:37 20:16:41 13° 270° (W) 20:19:45 435.675
FO-29 20 Jan 20:17:50 20:23:02 73° 103° (ESE) 20:28:19 435.910
Oscar 11 20 Jan 20:24:48 20:28:50 37° 262° (W) 20:32:54 .
DELFI C3 20 Jan 20:47:34 20:51:25 67° 76° (ENE) 20:55:19 145.870
nSIGHT-1 20 Jan 20:57:16 21:00:13 37° 326° (NW) 21:03:12 .
PCSat 20 Jan 20:58:37 21:00:40 12° 258° (WSW) 21:02:43 145.827
ISS 20 Jan 21:09:54 21:13:02 42° 325° (NW) 21:16:10 437.550
STRAND 1 20 Jan 21:20:57 21:22:51 12° 299° (WNW) 21:24:47 437.568
Max Valier Satellite 20 Jan 21:27:55 21:31:34 54° 260° (W) 21:35:15 145.860
AO-85 20 Jan 21:31:12 21:36:08 53° 243° (WSW) 21:41:17 145.980
LO-87 20 Jan 21:35:46 21:36:47 11° 66° (ENE) 21:37:48 145.935 - 145.965
TIGRISAT 20 Jan 21:42:06 21:46:45 57° 100° (E) 21:51:20 435.000
YUBILEINY 20 Jan 21:45:19 21:51:49 24° 81° (E) 21:58:17 435.215
EO-88 20 Jan 21:46:58 21:50:30 47° 261° (W) 21:54:03 145.990 - 145.960
UNISAT 6 20 Jan 21:57:20 22:02:04 89° 280° (W) 22:06:45 437.425
FO-29 20 Jan 22:05:34 22:07:30 12° 299° (WNW) 22:09:26 435.910
PRISM 20 Jan 22:10:44 22:14:01 23° 96° (E) 22:17:18 437.425
SPROUT 20 Jan 22:37:24 22:39:08 12° 65° (ENE) 22:40:53 437.525
ESTCUBE 1 20 Jan 22:37:47 22:42:14 59° 74° (ENE) 22:46:42 437.505/2401.250
AIST 2D 20 Jan 22:44:39 22:47:33 25° 96° (E) 22:50:26 435.315
ISS 20 Jan 22:49:24 22:50:12 11° 343° (NNW) 22:51:00 437.550
QB50P2 20 Jan 22:52:44 22:53:29 10° 91° (E) 22:54:14 145.880/145.840
LO-87 20 Jan 23:06:24 23:09:45 39° 261° (W) 23:13:08 145.935 - 145.965
TIGRISAT 20 Jan 23:20:24 23:22:54 14° 295° (WNW) 23:25:23 435.000
DUCHIFAT 1 20 Jan 23:20:46 23:23:18 15° 93° (E) 23:25:47 145.980
EO-79 20 Jan 23:21:23 23:24:40 21° 95° (E) 23:27:55 145.935-145.965
NO-84 20 Jan 23:32:19 23:34:35 21° 37° (NE) 23:36:54 435.350 FM
YUBILEINY 20 Jan 23:38:59 23:47:44 68° 279° (W) 23:56:32 435.215
PRISM 20 Jan 23:45:53 23:49:11 24° 291° (WNW) 23:52:28 437.425
POLYITAN 1 20 Jan 23:55:39 23:59:52 53° 100° (E) 00:04:03 437.675
SPROUT 21 Jan 00:10:22 00:14:30 54° 260° (W) 00:18:41 437.525
NANOSAT C BR1 21 Jan 00:11:11 00:15:27 72° 101° (E) 00:19:41 145.865
VELOX 1 21 Jan 00:13:33 00:17:57 85° 76° (ENE) 00:22:21 145.980
ESTCUBE 1 21 Jan 00:17:52 00:19:22 11° 269° (W) 00:20:52 437.505/2401.250
AIST 2D 21 Jan 00:18:21 00:20:29 16° 291° (WNW) 00:22:36 435.315
UKube-1 21 Jan 00:21:12 00:22:13 11° 63° (ENE) 00:23:15 .
BUGSAT 1 21 Jan 00:21:46 00:24:29 16° 94° (E) 00:27:11 437.445
QB50P2 21 Jan 00:25:22 00:29:36 58° 285° (WNW) 00:33:47 145.880/145.840
DX 1 21 Jan 00:30:30 00:33:57 24° 68° (ENE) 00:37:24 434.975-435.025
O/OREOS (USA 219) 21 Jan 00:33:41 00:38:12 77° 291° (WNW) 00:42:42 437.305
50 SAT 21 Jan 00:38:20 00:40:31 18° 71° (ENE) 00:42:44 437.505
DUCHIFAT 1 21 Jan 00:55:05 00:59:04 40° 288° (WNW) 01:03:02 145.980
EO-79 21 Jan 00:56:41 01:00:23 29° 290° (WNW) 01:04:04 145.935-145.965
Gurwin Techsat 1B 21 Jan 01:04:02 01:08:14 23° 95° (E) 01:12:25 435.225
NO-84 21 Jan 01:09:15 01:11:41 24° 231° (SW) 01:14:13 435.350 FM
Oscar 19 21 Jan 01:16:52 01:21:45 41° 99° (E) 01:26:35 437.125/150
AO-91 21 Jan 01:23:21 01:27:51 60° 101° (E) 01:32:49 145.960
POLYITAN 1 21 Jan 01:33:16 01:35:08 13° 295° (WNW) 01:36:59 437.675
ITUPSAT 1 21 Jan 01:40:21 01:42:50 14° 63° (ENE) 01:45:19 437.325
YUBILEINY 21 Jan 01:43:35 01:46:21 12° 300° (WNW) 01:49:06 435.215
nSIGHT-1 21 Jan 01:49:45 01:51:52 16° 25° (NNE) 01:54:00 .
UKube-1 21 Jan 01:53:24 01:57:39 64° 258° (WSW) 02:01:55 .
BUGSAT 1 21 Jan 01:56:00 01:59:55 37° 288° (WNW) 02:03:49 437.445
ISS 21 Jan 02:03:28 02:05:37 16° 24° (NNE) 02:07:47 437.550
DX 1 21 Jan 02:06:19 02:09:59 27° 263° (W) 02:13:41 434.975-435.025
MOZHAYETS 4 21 Jan 02:07:39 02:12:03 46° 73° (ENE) 02:16:30
50 SAT 21 Jan 02:10:10 02:12:08 16° 265° (W) 02:14:06 437.505
CUBESAT XI-V 21 Jan 02:13:41 02:15:51 13° 64° (ENE) 02:18:02 437.345
BEESAT 21 Jan 02:17:48 02:22:05 35° 70° (ENE) 02:26:24 436.000
AO-7 21 Jan 02:22:02 02:28:05 22° 94° (E) 02:34:04 .
Gurwin Techsat 1B 21 Jan 02:43:21 02:48:16 39° 290° (WNW) 02:53:09 435.225
Oscar 19 21 Jan 02:56:51 03:00:45 22° 295° (WNW) 03:04:38 437.125/150
AO-91 21 Jan 03:01:39 03:03:56 14° 293° (WNW) 03:06:17 145.960
ITUPSAT 1 21 Jan 03:15:25 03:20:07 59° 259° (W) 03:24:51 437.325
FALCONSAT 3 21 Jan 03:17:20 03:20:06 20° 156° (SSE) 03:22:53 435.103
nSIGHT-1 21 Jan 03:25:09 03:28:19 67° 224° (SW) 03:31:28 .
KKS-1 21 Jan 03:37:24 03:39:46 14° 65° (ENE) 03:42:08 437.445
ISS 21 Jan 03:39:10 03:42:26 76° 222° (SW) 03:45:41 437.550
MOZHAYETS 4 21 Jan 03:46:38 03:49:24 16° 268° (W) 03:52:11
CUBESAT XI-V 21 Jan 03:48:01 03:52:40 61° 259° (W) 03:57:20 437.345
BEESAT 21 Jan 03:56:13 03:59:53 22° 265° (W) 04:03:35 436.000
DOVE 4 21 Jan 04:01:08 04:04:18 19° 95° (E) 04:07:35 437.250
ITAMSAT 1 21 Jan 04:02:21 04:07:34 80° 103° (ESE) 04:12:47 435.822/435.867
AO-7 21 Jan 04:13:08 04:21:29 75° 290° (WNW) 04:29:47 .
FALCONSAT 3 21 Jan 04:55:13 04:58:48 50° 170° (S) 05:02:22 435.103
SO-50 21 Jan 04:58:10 05:02:30 54° 117° (ESE) 05:06:54 436.795
KKS-1 21 Jan 05:11:36 05:15:52 49° 260° (W) 05:20:10 437.445
XW-2F 21 Jan 05:14:21 05:15:52 12° 92° (E) 05:17:23 145.980 - 146.000
STRAND 1 21 Jan 05:18:52 05:19:50 11° 60° (ENE) 05:20:48 437.568
XW-2D 21 Jan 05:23:18 05:25:58 18° 94° (E) 05:28:36 145.860 - 145.880
NUDT-PHONESAT 21 Jan 05:23:20 05:23:59 10° 92° (E) 05:24:37 437.300
STARS 21 Jan 05:26:28 05:30:49 89° 63° (ENE) 05:35:12 437.465
M-CUBED/EXP-1 PRIME 21 Jan 05:31:07 05:34:21 49° 290° (WNW) 05:37:29 437.505
DOVE 4 21 Jan 05:38:03 05:42:01 35° 288° (WNW) 05:46:12 437.250
CUTE-I 21 Jan 05:38:07 05:42:28 25° 95° (E) 05:46:47 437.470
XW-2B 21 Jan 05:40:24 05:43:41 28° 97° (E) 05:46:57 145.730 - 145.750
ITAMSAT 1 21 Jan 05:44:17 05:46:19 12° 299° (WNW) 05:48:20 435.822/435.867
HO-68 21 Jan 05:52:11 05:57:07 20° 93° (E) 06:02:01 435.675
AO-7 21 Jan 06:08:18 06:12:50 16° 310° (NW) 06:17:22 .
LilacSat-2 21 Jan 06:08:36 06:12:23 80° 102° (ESE) 06:16:08 437.200
XW-2C 21 Jan 06:10:23 06:14:09 77° 102° (ESE) 06:17:52 145.795 - 145.815
FO-29 21 Jan 06:28:00 06:33:36 28° 68° (ENE) 06:38:43 435.910
FALCONSAT 3 21 Jan 06:34:06 06:37:42 58° 186° (S) 06:41:19 435.103
SEEDS 21 Jan 06:38:13 06:41:32 23° 95° (E) 06:44:49 437.485
SO-50 21 Jan 06:40:17 06:43:17 17° 315° (NW) 06:46:19 436.795
KAITUO 1B 21 Jan 06:44:07 06:47:43 53° 285° (WNW) 06:51:18 145.475/437.950
XW-2F 21 Jan 06:46:39 06:50:06 37° 286° (WNW) 06:53:32 145.980 - 146.000
CUTE 1.7 + AOD 2 21 Jan 06:50:52 06:55:01 57° 100° (E) 06:59:07 437.475
RS-15 21 Jan 06:53:04 07:03:53 38° 106° (ESE) 07:14:37 29.354- 29.394
STRAND 1 21 Jan 06:53:08 06:58:13 88° 263° (W) 07:03:21 437.568
NUDT-PHONESAT 21 Jan 06:54:31 06:58:00 41° 286° (WNW) 07:01:26 437.300
XW-2D 21 Jan 06:56:59 07:00:05 25° 289° (WNW) 07:03:09 145.860 - 145.880
CUBEBUG 2 21 Jan 07:06:36 07:11:18 56° 100° (E) 07:15:56 437.445
XW-2A 21 Jan 07:10:09 07:11:58 14° 93° (E) 07:13:49 145.665 - 145.685
UWE-3 21 Jan 07:11:27 07:15:43 34° 96° (E) 07:19:53 435.000/436.395/437.385
XW-2B 21 Jan 07:15:13 07:17:35 16° 292° (WNW) 07:19:58 145.730 - 145.750
CUTE-I 21 Jan 07:17:41 07:22:32 37° 291° (WNW) 07:27:24 437.470
ZACube-1 21 Jan 07:34:23 07:38:25 30° 96° (E) 07:42:20 437.345
HO-68 21 Jan 07:38:15 07:45:22 70° 288° (WNW) 07:52:27 435.675
AO-73 21 Jan 07:40:53 07:44:55 31° 96° (E) 07:48:51 145.935
AAUSAT CUBESAT 2 21 Jan 07:53:22 07:57:29 74° 101° (ESE) 08:01:33 437.432
FO-29 21 Jan 08:11:49 08:18:27 46° 260° (W) 08:24:24 435.910
PCSat 21 Jan 08:12:41 08:14:46 12° 102° (ESE) 08:16:51 145.827
FALCONSAT 3 21 Jan 08:13:18 08:16:29 28° 200° (SSW) 08:19:39 435.103
Oscar 11 21 Jan 08:13:29 08:17:37 43° 99° (E) 08:21:42 .
SEEDS 21 Jan 08:13:42 08:17:07 25° 290° (WNW) 08:20:32 437.485
CUTE 1.7 + AOD 2 21 Jan 08:29:01 08:30:18 11° 295° (WNW) 08:31:35 437.475
TIGRISAT 21 Jan 08:38:47 08:42:50 37° 72° (ENE) 08:47:01 435.000
XW-2A 21 Jan 08:41:53 08:44:39 24° 288° (WNW) 08:47:25 145.665 - 145.685
CUBEBUG 2 21 Jan 08:44:47 08:47:23 15° 295° (WNW) 08:49:58 437.445
UWE-3 21 Jan 08:48:21 08:51:54 22° 292° (WNW) 08:55:25 435.000/436.395/437.385
UNISAT 6 21 Jan 08:53:53 08:58:13 61° 75° (ENE) 09:02:41 437.425
PRISM 21 Jan 08:59:14 09:01:17 14° 65° (ENE) 09:03:19 437.425
Max Valier Satellite 21 Jan 09:00:36 09:02:42 14° 93° (E) 09:04:46 145.860
RS-15 21 Jan 09:03:33 09:15:44 63° 306° (NW) 09:27:50 29.354- 29.394
BEESAT 3 21 Jan 09:06:28 09:10:19 51° 117° (ESE) 09:14:12 437.485
O/OREOS (USA 219) 21 Jan 09:07:51 09:10:14 14° 56° (NE) 09:12:37 437.305
ZACube-1 21 Jan 09:10:54 09:14:29 23° 292° (WNW) 09:18:00 437.345
AO-73 21 Jan 09:17:25 09:20:55 22° 292° (WNW) 09:24:22 145.935
EO-88 21 Jan 09:18:06 09:20:15 15° 94° (E) 09:22:24 145.990 - 145.960
HO-68 21 Jan 09:29:12 09:31:48 12° 307° (NW) 09:34:24 435.675
Oscar 11 21 Jan 09:50:50 09:53:21 15° 294° (WNW) 09:55:50 .
YUBILEINY 21 Jan 09:51:35 10:00:09 56° 78° (ENE) 10:08:37 435.215
PCSat 21 Jan 09:52:01 09:57:24 77° 297° (WNW) 10:02:52 145.827
BEESAT 2 21 Jan 09:55:44 09:59:32 44° 116° (ESE) 10:03:23 435.950
DELFI C3 21 Jan 10:00:26 10:04:16 55° 285° (WNW) 10:08:06 145.870
EO-79 21 Jan 10:13:07 10:15:05 13° 65° (ENE) 10:17:04 145.935-145.965
TIGRISAT 21 Jan 10:16:39 10:19:39 18° 267° (W) 10:22:42 435.000
JUGNU 21 Jan 10:31:02 10:32:57 12° 173° (S) 10:34:53 437.505
PRISM 21 Jan 10:32:16 10:36:08 43° 260° (W) 10:40:01 437.425
Max Valier Satellite 21 Jan 10:33:17 10:36:33 30° 288° (WNW) 10:39:47 145.860
ESTCUBE 1 21 Jan 10:33:34 10:35:58 14° 92° (E) 10:38:20 437.505/2401.250
UNISAT 6 21 Jan 10:34:22 10:35:20 11° 270° (W) 10:36:19 437.425
LO-87 21 Jan 10:35:25 10:37:48 16° 94° (E) 10:40:10 145.935 - 145.965
O/OREOS (USA 219) 21 Jan 10:45:37 10:49:59 54° 253° (WSW) 10:54:20 437.305
BEESAT 3 21 Jan 10:45:47 10:48:07 15° 313° (NW) 10:50:27 437.485
POLYITAN 1 21 Jan 10:46:14 10:49:58 31° 71° (ENE) 10:53:42 437.675
AIST 2D 21 Jan 10:48:50 10:52:18 60° 259° (W) 10:55:47 435.315
EO-88 21 Jan 10:50:46 10:53:54 28° 288° (WNW) 10:57:01 145.990 - 145.960
NANOSAT C BR1 21 Jan 11:01:04 11:04:59 39° 72° (ENE) 11:08:56 145.865
QB50P2 21 Jan 11:15:25 11:19:38 78° 76° (ENE) 11:23:54 145.880/145.840
RS-15 21 Jan 11:22:15 11:31:21 23° 334° (NNW) 11:40:17 29.354- 29.394
BEESAT 2 21 Jan 11:34:47 11:37:27 17° 312° (NW) 11:40:08 435.950
PCSat 21 Jan 11:39:30 11:41:42 12° 317° (NW) 11:43:56 145.827
AO-85 21 Jan 11:44:00 11:47:55 84° 119° (ESE) 11:52:07 145.980
DUCHIFAT 1 21 Jan 11:44:07 11:48:17 73° 257° (WSW) 11:52:31 145.980
EO-79 21 Jan 11:46:16 11:50:22 49° 260° (W) 11:54:30 145.935-145.965
YUBILEINY 21 Jan 11:49:19 11:56:21 29° 277° (W) 12:03:22 435.215
SPROUT 21 Jan 11:57:50 12:01:32 28° 96° (E) 12:05:13 437.525
